Simultaneous Nadir Overpasses (SNOs) Predictions

Prediction of SNOs between AQUA and METOP-B Satellite Orbit:

Table of predicted SNOs for the next 14.0 days since TLE Epoch: 1/5/2025
Index Date (AQUA) Time (AQUA) Lat,Lon (AQUA) SZA (AQUA ) Date (METOP-B) Time (METOP-B) Lat,Lon (METOP-B) SZA (METOP-B ) Distance(km) Time Diff (sec)
1 01/05/2025 10:52:55 -76.72,-164.75 80.79 01/05/2025 10:52:09 -76.75,-164.75 80.76 2.85 46
2 01/05/2025 11:42:17 76.80, 2.64 99.29 01/05/2025 11:42:48 76.80, 2.79 99.30 3.86 31
3 01/07/2025 23:42:35 -76.25, 4.49 81.59 01/07/2025 23:41:31 -76.15, 0.78 81.63 98.82 64
4 01/08/2025 00:32:06 76.76, 170.40 98.93 01/08/2025 00:31:58 76.75, 170.26 98.93 3.70 8
5 01/08/2025 01:21:26 -76.83, -22.21 81.00 01/08/2025 01:22:38 -76.83, -22.10 81.00 2.86 72
6 01/10/2025 13:21:54 76.74, -21.93 98.55 01/10/2025 13:21:07 76.76, -22.00 98.58 3.29 47
7 01/10/2025 14:11:14 -76.81, 145.47 81.38 01/10/2025 14:11:48 -76.80, 145.48 81.39 1.14 34
8 01/13/2025 02:11:32 76.37, 146.98 97.76 01/13/2025 02:10:26 76.30, 144.01 97.74 78.52 66
9 01/13/2025 03:01:00 -76.82, -46.95 81.78 01/13/2025 03:00:57 -76.80, -46.83 81.80 3.49 3
10 01/13/2025 03:50:22 76.91, 120.39 98.31 01/13/2025 03:51:34 76.93, 121.01 98.32 15.75 72
11 01/15/2025 15:50:43 -76.81, 120.73 82.25 01/15/2025 15:50:06 -76.79, 120.78 82.27 3.04 37
12 01/15/2025 16:40:04 76.86, -71.77 97.80 01/15/2025 16:40:45 76.82, -71.74 97.77 3.82 41
13 01/18/2025 04:40:23 -76.78, -71.51
